timestamp,wind_dir_avg,wind_spd_avg,wind_spd_max_dir,wind_spd_gust,battery_voltage,lat,long
2023-02-08 00:04:00+00:00,63.0,12.82,64.0,15.84,12.41,47.59359,-54.27349
2023-02-08 00:14:00+00:00,65.0,11.95,67.0,14.77,12.41,47.59359,-54.27349
2023-02-08 00:24:00+00:00,70.0,12.08,72.0,15.74,12.41,47.59359,-54.27349
2023-02-08 00:34:00+00:00,63.0,14.36,62.0,17.17,12.41,47.59359,-54.27349
2023-02-08 00:44:00+00:00,66.0,12.05,62.0,13.76,12.41,47.59359,-54.27349
2023-02-08 00:54:00+00:00,71.0,13.35,68.0,15.4,12.41,47.59359,-54.27349
2023-02-08 01:04:00+00:00,66.0,12.17,60.0,14.2,12.41,47.59359,-54.27349
2023-02-08 01:14:00+00:00,64.0,12.63,67.0,15.05,12.33,47.59359,-54.27349
2023-02-08 01:24:00+00:00,67.0,13.47,76.0,17.08,12.33,47.59359,-54.27349
2023-02-08 01:34:00+00:00,65.0,13.09,52.0,15.72,12.33,47.59359,-54.27349
2023-02-08 01:44:00+00:00,65.0,13.26,65.0,17.42,12.33,47.59359,-54.27349
2023-02-08 01:54:00+00:00,68.0,13.19,73.0,16.25,12.33,47.59359,-54.27349
2023-02-08 02:04:00+00:00,64.0,13.37,67.0,15.45,12.33,47.59359,-54.27349
2023-02-08 02:14:00+00:00,66.0,12.41,60.0,14.45,12.33,47.59359,-54.27349
2023-02-08 02:24:00+00:00,65.0,12.78,61.0,15.41,12.33,47.59359,-54.27349
2023-02-08 02:34:00+00:00,70.0,11.8,75.0,15.57,12.33,47.59359,-54.27349
2023-02-08 02:44:00+00:00,69.0,11.49,63.0,13.02,12.33,47.59359,-54.27349
2023-02-08 02:54:00+00:00,71.0,11.79,65.0,14.66,12.33,47.59359,-54.27349
2023-02-08 03:04:00+00:00,70.0,11.47,66.0,13.08,12.33,47.59359,-54.27349
2023-02-08 03:14:00+00:00,69.0,10.1,68.0,13.09,12.33,47.59359,-54.27349
2023-02-08 03:24:00+00:00,74.0,9.34,71.0,12.66,12.33,47.59359,-54.27349
2023-02-08 03:34:00+00:00,74.0,9.77,54.0,13.94,12.33,47.59359,-54.27349
2023-02-08 03:44:00+00:00,72.0,10.38,81.0,14.54,12.33,47.59359,-54.27349
2023-02-08 03:54:00+00:00,73.0,7.05,71.0,12.59,12.33,47.59359,-54.27349
2023-02-08 04:04:00+00:00,71.0,11.39,70.0,15.99,12.33,47.59359,-54.27349
2023-02-08 04:14:00+00:00,71.0,11.75,68.0,13.54,12.33,47.59359,-54.27349
2023-02-08 04:24:00+00:00,71.0,11.63,67.0,13.66,12.33,47.59359,-54.27349
2023-02-08 04:34:00+00:00,75.0,11.39,77.0,16.34,12.33,47.59359,-54.27349
2023-02-08 04:44:00+00:00,77.0,10.41,59.0,13.78,12.33,47.59359,-54.27349
2023-02-08 04:54:00+00:00,70.0,12.03,70.0,13.82,12.33,47.59359,-54.27349
2023-02-08 05:04:00+00:00,65.0,11.61,67.0,13.51,12.33,47.59359,-54.27349
2023-02-08 05:14:00+00:00,68.0,11.68,63.0,13.34,12.25,47.59359,-54.27349
2023-02-08 05:24:00+00:00,70.0,11.23,77.0,15.0,12.25,47.59359,-54.27349
2023-02-08 05:34:00+00:00,66.0,12.02,64.0,13.85,12.25,47.59359,-54.27349
2023-02-08 05:44:00+00:00,67.0,12.04,56.0,13.69,12.25,47.59359,-54.27349
2023-02-08 05:54:00+00:00,70.0,11.61,66.0,14.14,12.25,47.59359,-54.27349
2023-02-08 06:04:00+00:00,74.0,11.86,76.0,13.94,12.25,47.59359,-54.27349
2023-02-08 06:14:00+00:00,73.0,10.77,77.0,13.57,12.25,47.59359,-54.27349
2023-02-08 06:24:00+00:00,71.0,10.53,69.0,13.37,12.25,47.59359,-54.27349
2023-02-08 06:34:00+00:00,64.0,10.91,64.0,13.26,12.25,47.59359,-54.27349
2023-02-08 06:44:00+00:00,65.0,12.2,68.0,14.36,12.25,47.59359,-54.27349
2023-02-08 06:54:00+00:00,65.0,11.08,70.0,14.09,12.25,47.59359,-54.27349
2023-02-08 07:04:00+00:00,65.0,10.17,68.0,13.5,12.25,47.59359,-54.27349
2023-02-08 07:14:00+00:00,64.0,11.35,62.0,12.84,12.25,47.59359,-54.27349
2023-02-08 07:24:00+00:00,63.0,10.49,58.0,12.94,12.25,47.59359,-54.27349
2023-02-08 07:34:00+00:00,58.0,10.19,54.0,12.81,12.25,47.59359,-54.27349
2023-02-08 07:44:00+00:00,59.0,12.15,58.0,13.52,12.25,47.59359,-54.27349
2023-02-08 07:54:00+00:00,67.0,11.23,59.0,12.92,12.25,47.59359,-54.27349
2023-02-08 08:04:00+00:00,65.0,10.47,64.0,12.14,12.25,47.59359,-54.27349
2023-02-08 08:14:00+00:00,62.0,9.33,60.0,10.7,12.25,47.59359,-54.27349
2023-02-08 08:24:00+00:00,58.0,10.44,56.0,12.07,12.25,47.59359,-54.27349
2023-02-08 08:34:00+00:00,55.0,10.87,57.0,12.6,12.25,47.59359,-54.27349
2023-02-08 08:44:00+00:00,51.0,11.36,45.0,13.86,12.25,47.59359,-54.27349
2023-02-08 08:54:00+00:00,55.0,11.6,51.0,13.46,12.25,47.59359,-54.27349
2023-02-08 09:04:00+00:00,56.0,11.23,55.0,12.97,12.25,47.59359,-54.27349
2023-02-08 09:14:00+00:00,54.0,11.05,53.0,12.36,12.25,47.59359,-54.27349
2023-02-08 09:24:00+00:00,56.0,11.08,48.0,12.57,12.25,47.59359,-54.27349
2023-02-08 09:34:00+00:00,60.0,10.37,53.0,12.72,12.25,47.59359,-54.27349
2023-02-08 09:44:00+00:00,52.0,10.96,49.0,12.99,12.25,47.59359,-54.27349
2023-02-08 09:54:00+00:00,57.0,11.61,54.0,13.11,12.25,47.59359,-54.27349
2023-02-08 10:04:00+00:00,48.0,12.48,45.0,14.15,12.25,47.59359,-54.27349
2023-02-08 10:14:00+00:00,52.0,12.17,51.0,13.63,12.17,47.59359,-54.27349
2023-02-08 10:24:00+00:00,49.0,12.53,49.0,13.5,12.17,47.59359,-54.27349
2023-02-08 10:34:00+00:00,52.0,11.62,49.0,15.76,12.17,47.59359,-54.27349
2023-02-08 10:44:00+00:00,47.0,12.49,46.0,14.07,12.17,47.59359,-54.27349
2023-02-08 10:54:00+00:00,41.0,11.2,47.0,13.2,12.17,47.59359,-54.27349
2023-02-08 11:04:00+00:00,40.0,12.3,39.0,13.65,12.17,47.59359,-54.27349
2023-02-08 11:14:00+00:00,42.0,12.11,41.0,13.63,12.17,47.59359,-54.27349
2023-02-08 11:24:00+00:00,39.0,13.41,39.0,14.66,12.17,47.59359,-54.27349
2023-02-08 11:34:00+00:00,30.0,11.56,33.0,12.97,12.17,47.59359,-54.27349
2023-02-08 11:44:00+00:00,38.0,11.63,38.0,13.12,12.17,47.59359,-54.27349
2023-02-08 11:54:00+00:00,40.0,12.25,38.0,13.57,12.17,47.59359,-54.27349
2023-02-08 12:04:00+00:00,33.0,12.13,29.0,15.2,12.17,47.59359,-54.27349
2023-02-08 12:14:00+00:00,34.0,12.26,36.0,13.67,12.25,47.59359,-54.27349
2023-02-08 12:24:00+00:00,32.0,11.59,33.0,13.47,12.25,47.59359,-54.27349
2023-02-08 12:34:00+00:00,30.0,10.07,26.0,11.1,12.25,47.59359,-54.27349
2023-02-08 12:44:00+00:00,26.0,10.8,22.0,12.47,12.25,47.59359,-54.27349
2023-02-08 12:54:00+00:00,26.0,11.39,19.0,15.06,12.25,47.59359,-54.27349
2023-02-08 13:04:00+00:00,28.0,11.55,32.0,12.77,12.25,47.59359,-54.27349
2023-02-08 13:14:01+00:00,21.0,11.96,23.0,13.08,12.49,47.59359,-54.27349
2023-02-08 13:24:01+00:00,28.0,10.98,35.0,12.64,12.49,47.59359,-54.27349
2023-02-08 13:34:01+00:00,27.0,11.29,17.0,14.5,12.49,47.59359,-54.27349
2023-02-08 13:44:01+00:00,30.0,10.72,33.0,13.01,12.49,47.59359,-54.27349
2023-02-08 13:54:01+00:00,24.0,11.13,26.0,12.31,12.49,47.59359,-54.27349
2023-02-08 14:04:01+00:00,26.0,10.97,29.0,12.88,12.49,47.59359,-54.27349
2023-02-08 14:14:00+00:00,27.0,10.54,27.0,11.64,12.89,47.59359,-54.27349
2023-02-08 14:24:00+00:00,17.0,9.49,26.0,11.18,12.89,47.59359,-54.27349
2023-02-08 14:34:00+00:00,13.0,9.79,13.0,10.99,12.89,47.59359,-54.27349
2023-02-08 14:44:00+00:00,22.0,9.99,20.0,11.28,12.89,47.59359,-54.27349
2023-02-08 14:54:00+00:00,25.0,9.73,25.0,11.1,12.89,47.59359,-54.27349
2023-02-08 15:04:00+00:00,28.0,10.55,30.0,11.94,12.89,47.59359,-54.27349
2023-02-08 15:14:00+00:00,32.0,9.82,32.0,11.55,13.44,47.59359,-54.27349
2023-02-08 15:24:00+00:00,29.0,10.15,27.0,11.21,13.44,47.59359,-54.27349
2023-02-08 15:34:00+00:00,31.0,9.79,34.0,11.02,13.44,47.59359,-54.27349
2023-02-08 15:44:00+00:00,26.0,8.33,30.0,10.03,13.44,47.59359,-54.27349
2023-02-08 15:54:00+00:00,29.0,8.9,29.0,10.62,13.44,47.59359,-54.27349
2023-02-08 16:04:00+00:00,27.0,7.39,33.0,8.37,13.44,47.59359,-54.27349
2023-02-08 16:14:00+00:00,31.0,8.69,30.0,9.85,13.6,47.59359,-54.27349
2023-02-08 16:24:00+00:00,30.0,8.63,31.0,9.41,13.6,47.59359,-54.27349
2023-02-08 16:34:00+00:00,28.0,7.86,27.0,9.22,13.6,47.59359,-54.27349
2023-02-08 16:44:00+00:00,28.0,7.39,28.0,8.14,13.6,47.59359,-54.27349
2023-02-08 16:54:00+00:00,31.0,8.35,27.0,9.26,13.6,47.59359,-54.27349
2023-02-08 17:04:00+00:00,22.0,8.94,34.0,9.79,13.6,47.59359,-54.27349
2023-02-08 17:14:00+00:00,7.0,6.69,18.0,7.81,13.6,47.59359,-54.27349
2023-02-08 17:24:00+00:00,17.0,7.81,23.0,8.82,13.6,47.59359,-54.27349
2023-02-08 17:34:00+00:00,1.0,8.16,359.0,8.89,13.6,47.59359,-54.27349
2023-02-08 17:44:00+00:00,353.0,6.03,21.0,7.28,13.6,47.59359,-54.27349
2023-02-08 17:54:00+00:00,3.0,5.53,0.0,6.11,13.6,47.59359,-54.27349
2023-02-08 18:04:00+00:00,356.0,6.8,351.0,7.42,13.6,47.59359,-54.27349
2023-02-08 18:14:01+00:00,358.0,7.01,8.0,7.69,13.53,47.59359,-54.27349
2023-02-08 18:24:01+00:00,353.0,6.76,349.0,7.54,13.53,47.59359,-54.27349
2023-02-08 18:34:01+00:00,351.0,7.33,0.0,8.43,13.53,47.59359,-54.27349
2023-02-08 18:44:01+00:00,352.0,6.72,337.0,7.76,13.53,47.59359,-54.27349
2023-02-08 18:54:01+00:00,341.0,7.43,341.0,8.35,13.53,47.59359,-54.27349
2023-02-08 19:04:01+00:00,348.0,6.84,356.0,7.9,13.53,47.59359,-54.27349
2023-02-08 19:14:00+00:00,346.0,7.37,343.0,8.15,13.05,47.59359,-54.27349
2023-02-08 19:24:00+00:00,354.0,8.14,356.0,9.24,13.05,47.59359,-54.27349
2023-02-08 19:34:00+00:00,351.0,7.14,350.0,8.13,13.05,47.59359,-54.27349
2023-02-08 19:44:00+00:00,349.0,7.58,353.0,8.31,13.05,47.59359,-54.27349
2023-02-08 19:54:00+00:00,349.0,8.16,350.0,9.09,13.05,47.59359,-54.27349
2023-02-08 20:04:00+00:00,349.0,6.42,345.0,8.1,13.05,47.59359,-54.27349
2023-02-08 21:14:01+00:00,330.0,6.43,329.0,7.12,12.49,47.59359,-54.27349
2023-02-08 21:24:01+00:00,347.0,6.02,337.0,6.82,12.49,47.59359,-54.27349
2023-02-08 21:34:01+00:00,343.0,6.21,346.0,6.87,12.49,47.59359,-54.27349
2023-02-08 21:44:01+00:00,346.0,6.14,347.0,7.01,12.49,47.59359,-54.27349
2023-02-08 21:54:01+00:00,337.0,4.5,327.0,5.28,12.49,47.59359,-54.27349
2023-02-08 22:04:01+00:00,325.0,5.64,327.0,6.15,12.49,47.59359,-54.27349
2023-02-08 22:14:00+00:00,325.0,6.59,324.0,7.41,12.41,47.59359,-54.27349
2023-02-08 22:24:00+00:00,326.0,5.38,330.0,6.4,12.41,47.59359,-54.27349
2023-02-08 22:34:00+00:00,301.0,5.55,294.0,9.14,12.41,47.59359,-54.27349
2023-02-08 22:44:00+00:00,314.0,6.03,299.0,8.47,12.41,47.59359,-54.27349
2023-02-08 22:54:00+00:00,313.0,6.06,305.0,7.36,12.41,47.59359,-54.27349
2023-02-08 23:04:00+00:00,317.0,6.44,323.0,7.45,12.41,47.59359,-54.27349
2023-02-08 23:14:00+00:00,313.0,8.1,312.0,9.36,12.41,47.59359,-54.27349
2023-02-08 23:24:00+00:00,313.0,6.15,305.0,7.78,12.41,47.59359,-54.27349
2023-02-08 23:34:00+00:00,307.0,5.38,302.0,6.14,12.41,47.59359,-54.27349
2023-02-08 23:44:00+00:00,306.0,6.59,303.0,7.55,12.41,47.59359,-54.27349
2023-02-08 23:54:00+00:00,311.0,6.18,322.0,7.32,12.41,47.59359,-54.27349
